KK7DS Weather Reports


Display with metric or nautical units.
time (UTC)temp
F
wind
direction
speed
MPH
gust
MPH
rain 1hr
in
rain 24hr
in
rain mn
in
humidity
%
barometer
mb
20260505180714 56 246 2.0 5.0 0.00 0.00 0.00 86 1017.1
20260505175715 56 227 1.0 3.0 0.00 0.00 0.00 86 1017.1
20260505174720 55 220 1.0 5.0 0.00 0.00 0.00 86 1017.1
20260505173027 56 212 2.0 4.0 0.00 0.00 0.00 86 1017.0
20260505172130 55 153 0.0 2.0 0.00 0.00 0.00 86 1016.9
20260505171133 55 219 1.0 4.0 0.00 0.00 0.00 87 1016.9
20260505170310 55 218 0.0 2.0 0.00 0.00 0.00 87 1016.8
20260505165415 54 252 0.0 3.0 0.00 0.00 0.00 89 1016.7
20260505164418 54 239 1.0 4.0 0.00 0.00 0.00 89 1016.7
20260505163532 54 246 1.0 3.0 0.00 0.00 0.00 89 1016.6
20260505162620 54 208 1.0 3.0 0.00 0.00 0.00 89 1016.6
20260505161630 54 215 2.0 5.0 0.00 0.00 0.00 89 1016.5
20260505160803 53 201 0.0 4.0 0.00 0.00 0.00 91 1016.5
20260505152029 52 246 2.0 5.0 0.00 0.00 0.00 92 1016.4
20260505151144 52 248 1.0 3.0 0.00 0.00 0.00 92 1016.4
20260505150217 52 216 1.0 5.0 0.00 0.00 0.00 91 1016.3
20260505124550 52 215 1.0 4.0 0.00 0.00 0.00 91 1015.4
20260505123557 52 215 0.0 2.0 0.00 0.00 0.00 91 1015.4
20260505122625 52 217 1.0 3.0 0.00 0.00 0.00 91 1015.4
20260505121800 52 207 0.0 2.0 0.00 0.00 0.00 91 1015.3
20260505120955 52 241 0.0 4.0 0.00 0.00 0.00 91 1015.2
20260505115200 52 212 1.0 3.0 0.00 0.00 0.00 91 1015.2
20260505114350 52 221 0.0 4.0 0.00 0.00 0.00 91 1015.2
20260505113503 52 226 1.0 4.0 0.00 0.00 0.00 90 1015.1
20260505112703 52 213 1.0 3.0 0.00 0.00 0.00 90 1015.2
20260505111810 52 205 0.0 3.0 0.00 0.00 0.00 90 1015.1
20260505110818 52 214 0.0 3.0 0.00 0.00 0.00 90 1015.0
20260505102208 52 187 0.0 3.0 0.00 0.00 0.00 91 1014.7
20260505101346 52 221 1.0 3.0 0.00 0.00 0.00 91 1014.7
20260505100519 52 220 1.0 4.0 0.00 0.00 0.00 91 1014.8
20260505095655 52 211 1.0 3.0 0.00 0.00 0.00 90 1014.7
20260505094730 52 208 1.0 4.0 0.00 0.00 0.00 91 1014.7
20260505093750 52 220 1.0 3.0 0.00 0.00 0.00 91 1014.7
20260505092859 52 220 1.0 4.0 0.00 0.00 0.00 90 1014.6
20260505091101 52 217 1.0 6.0 0.00 0.00 0.00 90 1014.5
20260505090130 52 213 2.0 5.0 0.00 0.00 0.00 90 1014.4
20260505085209 52 223 1.0 5.0 0.00 0.00 0.00 89 1014.4
20260505084218 52 232 3.0 5.0 0.00 0.00 0.00 89 1014.4
20260505083255 53 225 3.0 7.0 0.00 0.00 0.00 88 1014.4
20260505082445 53 220 3.0 8.0 0.00 0.00 0.00 88 1014.2
20260505081538 53 222 1.0 4.0 0.00 0.00 0.00 88 1014.3
20260505080549 53 227 2.0 5.0 0.00 0.00 0.00 87 1014.2
20260505075749 54 222 1.0 4.0 0.00 0.00 0.00 87 1014.1
20260505074110 54 223 3.0 6.0 0.00 0.00 0.00 86 1013.9
20260505073244 54 219 3.0 9.0 0.00 0.00 0.00 86 1013.6
20260505072310 54 217 3.0 9.0 0.00 0.00 0.00 85 1013.6
20260505071455 55 224 4.0 10.0 0.00 0.00 0.00 85 1013.4
20260505070732 55 230 4.0 8.0 0.00 0.00 0.00 85 1013.4
20260505070550 55 230 4.0 8.0 0.00 0.00 0.00 85 1013.4
20260505065710 55 216 3.0 8.0 0.00 0.00 0.00 85 1013.2
20260505064800 56 220 1.0 7.0 0.00 0.00 0.00 85 1013.1
20260505063034 57 219 2.0 4.0 0.00 0.00 0.00 84 1013.1
20260505062140 57 213 2.0 8.0 0.00 0.00 0.00 83 1013.0
20260505061159 58 211 2.0 8.0 0.00 0.00 0.00 82 1012.9
20260505060255 58 214 3.0 7.0 0.00 0.00 0.00 81 1012.9
20260505055435 59 216 2.0 7.0 0.00 0.00 0.00 80 1012.9
20260505054535 59 215 2.0 5.0 0.00 0.00 0.00 79 1012.7
20260505053709 60 210 1.0 5.0 0.00 0.00 0.00 79 1012.8
20260505052840 61 219 1.0 3.0 0.00 0.00 0.00 79 1012.7
20260505051853 62 217 1.0 7.0 0.00 0.00 0.00 79 1012.6
20260505050111 62 209 2.0 4.0 0.00 0.00 0.00 78 1012.5
20260505041648 64 221 2.0 6.0 0.00 0.00 0.00 77 1011.7
20260505040743 65 240 3.0 8.0 0.00 0.00 0.00 77 1011.6
20260505035813 65 217 4.0 10.0 0.00 0.00 0.00 77 1011.4
20260505034855 65 224 4.0 9.0 0.00 0.00 0.00 77 1011.2
20260505033158 66 221 3.0 8.0 0.00 0.00 0.00 77 1011.1
20260505032254 66 213 3.0 8.0 0.00 0.00 0.00 76 1011.1
20260505031432 66 216 3.0 8.0 0.00 0.00 0.00 76 1011.0
20260505030605 67 216 2.0 9.0 0.00 0.00 0.00 74 1010.9
20260505025705 67 218 3.0 9.0 0.00 0.00 0.00 73 1010.9
20260505024736 68 222 3.0 8.0 0.00 0.00 0.00 72 1010.9
20260505023815 69 216 3.0 8.0 0.00 0.00 0.00 72 1010.8
20260505022020 69 219 2.0 7.0 0.00 0.00 0.00 71 1010.9
20260505021105 69 227 3.0 7.0 0.00 0.00 0.00 70 1010.9
20260505020245 69 219 3.0 7.0 0.00 0.00 0.00 70 1010.9
20260505015328 69 214 3.0 10.0 0.00 0.00 0.00 71 1010.9
20260505014330 69 209 3.0 7.0 0.00 0.00 0.00 70 1011.0
20260505013454 69 222 3.0 7.0 0.00 0.00 0.00 70 1011.1
20260505012654 69 221 3.0 6.0 0.00 0.00 0.00 69 1011.1
20260505011830 69 217 3.0 10.0 0.00 0.00 0.00 69 1011.1
20260505010953 70 220 4.0 8.0 0.00 0.00 0.00 68 1011.1
20260505005056 70 216 3.0 7.0 0.00 0.00 0.00 68 1011.2
20260505004200 71 231 3.0 8.0 0.00 0.00 0.00 67 1011.2
20260505003341 71 210 3.0 7.0 0.00 0.00 0.00 67 1011.3
20260505002543 70 212 5.0 10.0 0.00 0.00 0.00 67 1011.3
20260505001714 70 236 2.0 8.0 0.00 0.00 0.00 66 1011.4
20260505000855 70 230 4.0 11.0 0.00 0.00 0.00 66 1011.4
20260504235910 71 237 3.0 8.0 0.00 0.00 0.00 66 1011.4
20260504234057 71 237 3.0 9.0 0.00 0.00 0.00 65 1011.4
20260504233230 70 219 3.0 9.0 0.00 0.00 0.00 67 1011.5
20260504232238 70 223 4.0 8.0 0.00 0.00 0.00 67 1011.6
20260504231305 70 228 3.0 9.0 0.00 0.00 0.00 67 1011.8
20260504230337 69 225 4.0 8.0 0.00 0.00 0.00 66 1011.9
20260504225445 70 240 2.0 7.0 0.00 0.00 0.00 65 1012.0
20260504224621 70 208 2.0 7.0 0.00 0.00 0.00 65 1012.1
20260504223819 69 212 2.0 8.0 0.00 0.00 0.00 66 1012.2
20260504222104 68 234 3.0 6.0 0.00 0.00 0.00 68 1012.3
20260504221105 67 247 4.0 9.0 0.00 0.00 0.00 68 1012.4
20260504220245 68 176 1.0 7.0 0.00 0.00 0.00 68 1012.4
20260504215310 68 223 4.0 10.0 0.00 0.00 0.00 67 1012.6
20260504214315 67 221 3.0 6.0 0.00 0.00 0.00 70 1012.7
20260504213450 66 221 3.0 7.0 0.00 0.00 0.00 70 1012.9
20260504212627 66 229 4.0 9.0 0.00 0.00 0.00 69 1013.0
20260504211710 66 218 2.0 7.0 0.00 0.00 0.00 70 1013.2
20260504210820 65 203 3.0 9.0 0.00 0.00 0.00 71 1013.3
20260504210005 65 217 3.0 7.0 0.00 0.00 0.00 71 1013.5
20260504204150 64 223 3.0 7.0 0.00 0.00 0.00 73 1013.5
20260504203330 64 223 3.0 9.0 0.00 0.00 0.00 74 1013.6
20260504202448 63 225 4.0 10.0 0.00 0.00 0.00 75 1013.7
20260504201535 63 215 3.0 7.0 0.00 0.00 0.00 75 1013.8
20260504200714 62 227 3.0 7.0 0.00 0.00 0.00 76 1013.8
20260504195830 62 203 3.0 9.0 0.00 0.00 0.00 76 1013.9
20260504194834 61 248 3.0 8.0 0.00 0.00 0.00 79 1013.9
20260504193034 60 226 3.0 11.0 0.00 0.00 0.00 79 1013.9
20260504192110 59 213 3.0 9.0 0.00 0.00 0.00 80 1014.0
20260504191225 59 245 4.0 9.0 0.00 0.00 0.00 79 1014.1
20260504190400 59 218 4.0 8.0 0.00 0.00 0.00 81 1014.1
20260504185435 58 239 4.0 11.0 0.00 0.00 0.00 83 1014.2
20260504184617 58 230 4.0 10.0 0.00 0.00 0.00 82 1014.1
20260504183754 57 233 5.0 10.0 0.00 0.00 0.00 83 1014.1
20260504182835 57 221 2.0 6.0 0.00 0.00 0.00 85 1014.1